DW2150 Weather Reports


time (UTC)temp
C
wind
direction
speed
KPH
gust
KPH
rain 1hr
cm
rain 24hr
cm
rain mn
cm
humidity
%
barometer
mb
20260504021634 18 300 0.0 0.0 0.00 0.00 0.00 75 1019.0
20260504021131 18 300 0.0 0.0 0.00 0.00 0.00 74 1019.0
20260504020629 18 300 0.0 0.0 0.00 0.00 0.00 73 1019.0
20260504020125 19 300 0.0 0.0 0.00 0.00 0.00 73 1019.0
20260504015623 19 300 0.0 0.0 0.00 0.00 0.00 73 1019.0
20260504015120 19 300 0.0 0.0 0.00 0.00 0.00 74 1019.0
20260504014616 19 300 0.0 0.0 0.00 0.00 0.00 73 1018.6
20260504014113 20 300 0.0 1.6 0.00 0.00 0.00 73 1019.0
20260504013610 20 300 0.0 1.6 0.00 0.00 0.00 72 1019.0
20260504013048 20 300 0.0 1.6 0.00 0.00 0.00 74 1019.0
20260504012545 20 300 1.6 1.6 0.00 0.00 0.00 72 1018.6
20260504012042 20 300 1.6 1.6 0.00 0.00 0.00 72 1018.6
20260504011539 20 300 0.0 0.0 0.00 0.00 0.00 72 1018.6
20260504011036 20 300 0.0 0.0 0.00 0.00 0.00 71 1018.6
20260504010458 20 300 0.0 1.6 0.00 0.00 0.00 71 1018.6
20260504005935 21 300 0.0 1.6 0.00 0.00 0.00 70 1018.6
20260504005432 21 300 0.0 1.6 0.00 0.00 0.00 70 1018.6
20260504004929 21 300 0.0 1.6 0.00 0.00 0.00 68 1018.6
20260504004426 21 296 0.0 0.0 0.00 0.00 0.00 68 1018.6
20260504003904 21 296 0.0 1.6 0.00 0.00 0.00 68 1018.6
20260504003401 21 296 0.0 1.6 0.00 0.00 0.00 67 1018.6
20260504002859 21 296 0.0 1.6 0.00 0.00 0.00 67 1018.6
20260504002354 22 327 1.6 1.6 0.00 0.00 0.00 66 1018.6
20260504001851 22 327 0.0 1.6 0.00 0.00 0.00 65 1018.6
20260504001317 22 327 1.6 1.6 0.00 0.00 0.00 62 1018.6
20260504000743 22 327 1.6 1.6 0.00 0.00 0.00 62 1018.6
20260504000138 22 327 1.6 1.6 0.00 0.00 0.00 62 1018.6
20260503235540 22 327 1.6 1.6 0.00 0.00 0.00 62 1018.6
20260503235018 22 326 0.0 3.2 0.00 0.00 0.00 61 1018.6
20260503234500 23 326 1.6 3.2 0.00 0.00 0.00 60 1019.0
20260503233957 23 326 0.0 3.2 0.00 0.00 0.00 61 1019.0
20260503233435 23 309 1.6 3.2 0.00 0.00 0.00 61 1019.0
20260503232932 23 20 1.6 3.2 0.00 0.00 0.00 59 1019.0
20260503232429 23 76 1.6 4.8 0.00 0.00 0.00 61 1019.0
20260503231926 23 76 1.6 4.8 0.00 0.00 0.00 60 1019.0
20260503231423 23 76 1.6 4.8 0.00 0.00 0.00 59 1019.0
20260503230920 23 77 1.6 4.8 0.00 0.00 0.00 60 1019.0
20260503230345 24 30 1.6 3.2 0.00 0.00 0.00 58 1019.0
20260503225823 24 55 1.6 3.2 0.00 0.00 0.00 61 1019.3
20260503225320 24 57 1.6 3.2 0.00 0.00 0.00 55 1019.0
20260503224817 24 36 1.6 4.8 0.00 0.00 0.00 61 1019.0
20260503224313 24 360 0.0 4.8 0.00 0.00 0.00 58 1019.3
20260503223811 25 9 1.6 4.8 0.00 0.00 0.00 58 1019.3
20260503223308 25 5 1.6 4.8 0.00 0.00 0.00 58 1019.3
20260503222805 25 333 0.0 3.2 0.00 0.00 0.00 58 1019.6
20260503222304 25 334 1.6 3.2 0.00 0.00 0.00 57 1019.3
20260503221759 25 327 1.6 3.2 0.00 0.00 0.00 57 1019.3
20260503221256 25 327 1.6 3.2 0.00 0.00 0.00 55 1019.3
20260503220753 25 345 1.6 3.2 0.00 0.00 0.00 56 1019.3
20260503220250 25 12 1.6 3.2 0.00 0.00 0.00 55 1019.3
20260503215747 25 26 1.6 3.2 0.00 0.00 0.00 53 1019.6
20260503215244 26 22 0.0 4.8 0.00 0.00 0.00 53 1019.6
20260503214710 26 320 1.6 4.8 0.00 0.00 0.00 56 1019.6
20260503214206 26 290 1.6 4.8 0.00 0.00 0.00 52 1019.6
20260503213703 26 286 1.6 4.8 0.00 0.00 0.00 53 1019.6
20260503213159 26 289 1.6 4.8 0.00 0.00 0.00 54 1020.0
20260503212624 26 309 1.6 6.4 0.00 0.00 0.00 53 1020.0
20260503212121 26 315 1.6 6.4 0.00 0.00 0.00 55 1020.0
20260503211559 26 315 1.6 8.0 0.00 0.00 0.00 54 1020.0
20260503211056 26 313 1.6 8.0 0.00 0.00 0.00 52 1020.0
20260503210553 26 351 3.2 8.0 0.00 0.00 0.00 52 1020.3
20260503210050 26 50 3.2 6.4 0.00 0.00 0.00 49 1020.3
20260503205516 26 315 1.6 11.3 0.00 0.00 0.00 52 1020.3
20260503205013 26 150 1.6 11.3 0.00 0.00 0.00 50 1020.3
20260503204510 26 52 3.2 11.3 0.00 0.00 0.00 53 1020.3
20260503204008 26 15 3.2 9.7 0.00 0.00 0.00 49 1020.3
20260503203505 26 46 3.2 9.7 0.00 0.00 0.00 52 1020.7
20260503203002 26 292 1.6 8.0 0.00 0.00 0.00 48 1020.7
20260503202427 26 303 3.2 9.7 0.00 0.00 0.00 53 1020.7
20260503201925 26 52 1.6 9.7 0.00 0.00 0.00 49 1021.0
20260503201422 26 54 4.8 9.7 0.00 0.00 0.00 45 1021.0
20260503200918 26 73 3.2 11.3 0.00 0.00 0.00 48 1021.0
20260503200415 26 0 1.6 11.3 0.00 0.00 0.00 49 1021.0
20260503195912 26 108 1.6 11.3 0.00 0.00 0.00 46 1021.3
20260503195409 26 62 3.2 8.0 0.00 0.00 0.00 49 1021.3
20260503194905 26 48 3.2 4.8 0.00 0.00 0.00 46 1021.3
20260503194402 26 22 1.6 8.0 0.00 0.00 0.00 46 1021.3
20260503193828 26 331 1.6 8.0 0.00 0.00 0.00 49 1021.3
20260503193223 26 70 1.6 8.0 0.00 0.00 0.00 48 1021.7
20260503192720 26 332 4.8 8.0 0.00 0.00 0.00 46 1021.7
20260503192217 27 65 1.6 4.8 0.00 0.00 0.00 50 1021.7
20260503191714 27 37 1.6 4.8 0.00 0.00 0.00 50 1021.7
20260503191211 27 311 3.2 4.8 0.00 0.00 0.00 47 1021.7
20260503190708 27 237 1.6 9.7 0.00 0.00 0.00 50 1022.0
20260503190205 27 3 3.2 12.9 0.00 0.00 0.00 53 1022.0
20260503185701 27 28 1.6 12.9 0.00 0.00 0.00 50 1022.0
20260503185158 26 40 3.2 12.9 0.00 0.00 0.00 45 1022.0
20260503184655 26 34 4.8 12.9 0.00 0.00 0.00 43 1022.0
20260503184151 27 52 3.2 12.9 0.00 0.00 0.00 45 1022.4
20260503183647 26 48 4.8 9.7 0.00 0.00 0.00 48 1022.4
20260503183144 26 187 3.2 11.3 0.00 0.00 0.00 48 1022.4
20260503182610 26 31 1.6 11.3 0.00 0.00 0.00 45 1022.4
20260503182048 26 55 3.2 11.3 0.00 0.00 0.00 42 1022.4
20260503181545 26 65 3.2 11.3 0.00 0.00 0.00 40 1022.7
20260503181041 26 27 3.2 11.3 0.00 0.00 0.00 44 1022.7
20260503180538 26 17 3.2 12.9 0.00 0.00 0.00 43 1022.7
20260503180013 26 290 1.6 12.9 0.00 0.00 0.00 44 1022.7
20260503175510 26 52 4.8 12.9 0.00 0.00 0.00 40 1022.7
20260503174905 26 47 4.8 12.9 0.00 0.00 0.00 43 1023.0
20260503174402 26 30 4.8 12.9 0.00 0.00 0.00 41 1023.0
20260503173828 26 56 3.2 17.7 0.00 0.00 0.00 45 1023.0
20260503173325 26 19 4.8 17.7 0.00 0.03 0.00 44 1023.4
20260503172822 26 357 3.2 17.7 0.00 0.03 0.00 46 1023.4
20260503172319 26 30 4.8 17.7 0.00 0.03 0.00 46 1023.4
20260503171745 26 32 1.6 9.7 0.00 0.03 0.00 50 1023.4
20260503171241 26 36 3.2 12.9 0.00 0.03 0.00 42 1023.4
20260503170706 26 3 3.2 12.9 0.00 0.03 0.00 46 1023.4
20260503170132 26 121 1.6 12.9 0.00 0.03 0.00 43 1023.4
20260503150749 23 33 3.2 11.3 0.00 0.03 0.00 65 1023.0
20260503150227 22 33 3.2 11.3 0.00 0.03 0.00 56 1023.0
20260503130854 16 294 0.0 0.0 0.00 0.03 0.00 95 1022.4
20260503130351 16 294 0.0 0.0 0.00 0.03 0.00 95 1022.4
20260503110339 13 294 0.0 0.0 0.00 0.03 0.00 92 1021.7
20260503090336 14 294 0.0 0.0 0.00 0.03 0.00 91 1021.3
20260503081202 15 294 0.0 0.0 0.00 0.03 0.00 89 1021.0
20260503080627 15 294 0.0 0.0 0.00 0.03 0.00 89 1021.0
20260503080124 15 294 0.0 0.0 0.00 0.03 0.00 89 1021.0
20260503072428 15 294 0.0 0.0 0.00 0.03 0.00 88 1021.0
20260503071924 15 294 0.0 0.0 0.00 0.03 0.00 87 1021.0
20260503071421 15 294 0.0 0.0 0.00 0.03 0.00 87 1021.0
20260503070900 15 294 0.0 0.0 0.00 0.03 0.00 86 1021.0
20260503070357 15 294 0.0 0.0 0.00 0.03 0.00 87 1021.0
20260503060112 16 294 0.0 0.0 0.00 0.03 0.00 84 1021.3
20260503055037 16 294 0.0 0.0 0.00 0.03 0.00 84 1021.0
20260503054503 16 294 0.0 0.0 0.00 0.03 0.00 84 1021.0
20260503054000 16 294 0.0 0.0 0.00 0.03 0.00 83 1021.0
20260503053458 16 294 0.0 0.0 0.00 0.03 0.00 84 1021.0
20260503052954 16 294 0.0 0.0 0.00 0.03 0.00 83 1021.0
20260503052451 16 294 0.0 0.0 0.00 0.03 0.00 83 1021.0
20260503051948 16 294 0.0 0.0 0.00 0.03 0.03 83 1021.0
20260503051444 16 294 0.0 0.0 0.00 0.03 0.03 82 1021.0
20260503050941 16 294 0.0 0.0 0.00 0.03 0.03 82 1021.0
20260503050438 16 294 0.0 0.0 0.00 0.03 0.03 82 1021.0
20260503045935 16 294 0.0 0.0 0.00 0.03 0.03 83 1020.7
20260503045432 16 294 0.0 0.0 0.00 0.03 0.03 83 1020.7
20260503044929 16 294 0.0 0.0 0.00 0.03 0.03 82 1020.7
20260503044426 16 294 0.0 0.0 0.00 0.03 0.03 82 1020.7
20260503043922 16 294 0.0 0.0 0.00 0.03 0.03 82 1020.7
20260503043420 16 294 0.0 0.0 0.00 0.03 0.03 82 1020.7
20260503042917 16 294 0.0 0.0 0.00 0.03 0.03 82 1020.7
20260503042414 16 294 0.0 0.0 0.00 0.03 0.03 82 1020.7
20260503041910 16 294 0.0 0.0 0.00 0.03 0.03 82 1021.0
20260503041407 16 294 0.0 0.0 0.00 0.03 0.03 82 1020.7
20260503040904 16 294 0.0 0.0 0.00 0.03 0.03 82 1020.7
20260503040401 16 294 0.0 0.0 0.00 0.03 0.03 82 1020.7
20260503035858 16 294 0.0 0.0 0.00 0.05 0.03 81 1020.7
20260503035355 16 294 0.0 0.0 0.00 0.05 0.03 81 1020.7
20260503034852 16 294 0.0 0.0 0.00 0.05 0.03 81 1020.7
20260503034349 17 294 0.0 0.0 0.00 0.05 0.03 81 1020.3
20260503033846 17 294 0.0 0.0 0.00 0.05 0.03 82 1020.3
20260503033311 17 294 0.0 0.0 0.00 0.08 0.03 81 1020.3
20260503032807 17 294 0.0 0.0 0.00 0.08 0.03 81 1020.3
20260503032305 17 294 0.0 0.0 0.00 0.10 0.03 81 1020.3
20260503031711 17 294 0.0 0.0 0.00 0.10 0.03 80 1020.3
20260503031136 17 294 0.0 0.0 0.00 0.13 0.03 79 1020.3
20260503030633 17 294 0.0 0.0 0.00 0.13 0.03 79 1020.3
20260503030129 17 294 0.0 0.0 0.00 0.15 0.03 79 1020.3
20260503025626 17 294 0.0 0.0 0.00 0.18 0.03 78 1020.3
20260503025122 17 294 0.0 0.0 0.00 0.18 0.03 77 1020.3
20260503024619 17 294 0.0 0.0 0.00 0.20 0.03 77 1020.3
20260503024116 17 294 0.0 0.0 0.00 0.20 0.03 77 1020.3
20260503023612 18 294 0.0 0.0 0.00 0.23 0.03 76 1020.3
20260503023109 18 294 0.0 0.0 0.00 0.25 0.03 77 1020.0
20260503022606 18 294 0.0 0.0 0.00 0.25 0.03 77 1020.0
20260503022103 18 294 0.0 0.0 0.00 0.28 0.03 75 1020.0